Regional Weather Roundup
Issued by NWS Cleveland, OH

Home | Current Version | Previous Version | Text Only | Print | Product List | Glossary Off
Versions: 1 2 3 4 5 6 7 8 9 10 11 12 13 14 15 16 17 18 19 20 21 22 23 24 25 26 27 28 29 30 31 32 33 34 35 36 37 38 39 40 41 42 43 44 45 46 47 48 49 50

000
ASUS41 KCLE 241002
RWRCLE
OHIO REGIONAL WEATHER ROUNDUP
NATIONAL WEATHER SERVICE CLEVELAND, OH
600 AM EDT SUN MAY 24 2015

NOTE: "FAIR" INDICATES FEW OR NO CLOUDS BELOW 12,000 FEET WITH NO
SIGNIFICANT WEATHER AND/OR OBSTRUCTIONS TO VISIBILITY.

OHZ001>008-015>018-024>027-034-035-043-044-241100-
   NORTHWEST OHIO

CITY           SKY/WX    TMP DP  RH WIND       PRES   REMARKS
DEFIANCE       PTCLDY    51  47  86 CALM      30.27R
FINDLAY        CLEAR     56  45  66 S6        30.28R
TOLEDO EXPRESS CLEAR     49  45  86 CALM      30.27R
TOLEDO EXEC    CLEAR     55  43  63 S3        30.28R
LIMA           PTCLDY    55  45  68 S7        30.29R
$$

OHZ009>014-019>023-028>033-038-089-241100-
   NORTHEAST OHIO

CITY           SKY/WX    TMP DP  RH WIND       PRES   REMARKS
CLE-HOPKINS    CLEAR     50  41  71 CALM      30.31R
CLE-LAKEFRONT  CLEAR     59  40  49 S13       30.28R
CUY CO. ARPT   NOT AVBL
LORAIN-ELYRIA  CLEAR     51  41  68 CALM      30.30R
ASHTABULA      CLEAR     48  41  76 S6        30.31S
AKRON-CANTON   CLEAR     53  40  61 S5        30.33R
WOOSTER        CLEAR     47  41  80 CALM      30.33R
MANSFIELD      CLEAR     54  42  64 S6        30.32R
YOUNGSTOWN     PTCLDY    54  38  54 S8        30.32R
$$

OHZ042-051>053-060>062-070>072-077>081-241100-
  SOUTHWEST OHIO

CITY           SKY/WX    TMP DP  RH WIND       PRES   REMARKS
CINC-COVINGTON MOCLDY    61  48  62 S7        30.27S
CINC-LUNKEN    CLEAR     50  49  96 CALM      30.29S
HAMILTON       CLEAR     53  49  86 CALM      30.28S
DAYTON         PTCLDY    56  46  69 SE7       30.29S
WRIGHT-PAT AFB CLEAR     51  48  89 N2        30.29R
DAYTON GENERAL CLEAR     61  45  55 SE7       30.28R
WILMINGTON     CLEAR     57  43  59 SE5       30.29S
$$

OHZ036-037-039>041-045>050-054>059-063>069-073>076-082>088-241100-
  CENTRAL AND SOUTHEAST OHIO

CITY           SKY/WX    TMP DP  RH WIND       PRES   REMARKS
COLUMBUS       PTCLDY    52  46  80 CALM      30.31R
OSU AIRPORT    CLEAR     54  44  69 E3        30.31R
BOLTON FIELD   NOT AVBL
RICKENBACK AFB NOT AVBL
NEWARK         CLEAR     46  44  93 CALM      30.32R
MARION         CLEAR     53  43  68 S7        30.31R
LANCASTER      CLEAR     50  46  86 S3        30.32R
ZANESVILLE     CLEAR     46  42  86 CALM      30.33R
NEW PHILLY     CLEAR     48  44  86 CALM      30.34R
$$



USA.gov is the U.S. government's official web portal to all federal, state and local government web resources and services.